GW2301 Weather Reports


time (UTC)temp
C
wind
direction
speed
KPH
gust
KPH
rain 1hr
cm
rain 24hr
cm
rain mn
cm
humidity
%
barometer
mb
20260502234042 11 87 0.0 6.4 0.00 0.00 0.00 44 1016.0
20260502233543 11 111 1.6 6.4 0.00 0.00 0.00 43 1016.1
20260502233157 11 190 0.0 4.8 0.00 0.00 0.00 44 1016.0
20260502232547 11 121 0.0 3.2 0.00 0.00 0.00 43 1015.9
20260502232020 11 167 1.6 4.8 0.00 0.00 0.00 43 1016.1
20260502231705 11 38 0.0 4.8 0.00 0.00 0.00 44 1016.0
20260502231041 11 219 0.0 3.2 0.00 0.00 0.00 44 1015.8
20260502230524 11 250 0.0 4.8 0.00 0.00 0.00 43 1015.8
20260502230204 11 57 1.6 4.8 0.00 0.00 0.00 43 1015.8
20260502225523 12 69 0.0 4.8 0.00 0.00 0.00 45 1015.8
20260502225034 12 64 1.6 9.7 0.00 0.00 0.00 42 1015.9
20260502224705 12 92 0.0 9.7 0.00 0.00 0.00 41 1015.9
20260502224028 12 25 1.6 4.8 0.00 0.00 0.00 43 1015.9
20260502223525 12 32 1.6 4.8 0.00 0.00 0.00 44 1015.7
20260502223158 12 184 1.6 6.4 0.00 0.00 0.00 40 1015.7
20260502222540 12 210 0.0 6.4 0.00 0.00 0.00 41 1015.7
20260502222035 12 251 3.2 6.4 0.00 0.00 0.00 41 1015.7
20260502221623 12 136 1.6 6.4 0.00 0.00 0.00 41 1015.7
20260502221032 12 100 0.0 9.7 0.00 0.00 0.00 42 1015.7
20260502220521 13 285 3.2 9.7 0.00 0.00 0.00 41 1015.7
20260502220209 12 350 0.0 8.0 0.00 0.00 0.00 40 1015.6
20260502215529 12 223 1.6 8.0 0.00 0.00 0.00 41 1015.5
20260502215041 12 225 1.6 8.0 0.00 0.00 0.00 40 1015.3
20260502214703 13 179 1.6 11.3 0.00 0.00 0.00 39 1015.3
20260502214047 13 227 3.2 11.3 0.00 0.00 0.00 41 1015.4
20260502213522 13 77 1.6 12.9 0.00 0.00 0.00 39 1015.3
20260502213116 12 98 4.8 12.9 0.00 0.00 0.00 40 1015.3
20260502212531 13 88 1.6 14.5 0.00 0.00 0.00 40 1015.2
20260502212041 13 214 4.8 14.5 0.00 0.00 0.00 39 1015.3
20260502211610 13 37 1.6 12.9 0.00 0.00 0.00 38 1015.4
20260502211042 12 198 1.6 9.7 0.00 0.00 0.00 40 1015.2
20260502210523 12 189 1.6 9.7 0.00 0.00 0.00 40 1015.4
20260502210136 13 320 3.2 9.7 0.00 0.00 0.00 39 1015.4
20260502205529 13 115 0.0 8.0 0.00 0.00 0.00 40 1015.3
20260502205049 13 174 3.2 11.3 0.00 0.00 0.00 38 1015.3
20260502204652 13 267 4.8 14.5 0.00 0.00 0.00 39 1015.3
20260502204034 13 208 9.7 14.5 0.00 0.00 0.00 37 1015.1
20260502203530 13 217 8.0 9.7 0.00 0.00 0.00 38 1015.5
20260502203150 13 27 1.6 8.0 0.00 0.00 0.00 40 1015.4
20260502202532 12 200 1.6 11.3 0.00 0.00 0.00 41 1015.4
20260502202022 13 234 4.8 11.3 0.00 0.00 0.00 39 1015.4
20260502201648 13 142 1.6 16.1 0.00 0.00 0.00 42 1015.6
20260502201024 13 229 3.2 16.1 0.00 0.00 0.00 39 1015.5
20260502200532 14 220 6.4 12.9 0.00 0.00 0.00 37 1015.6
20260502200154 15 200 1.6 14.5 0.00 0.00 0.00 37 1015.5
20260502195526 14 28 3.2 14.5 0.00 0.00 0.00 40 1015.6
20260502195024 13 66 1.6 17.7 0.00 0.00 0.00 40 1015.8
20260502194657 13 224 4.8 14.5 0.00 0.00 0.00 40 1015.7
20260502194028 13 221 8.0 14.5 0.00 0.00 0.00 40 1015.8
20260502193531 13 217 4.8 9.7 0.00 0.00 0.00 40 1015.7
20260502193153 13 279 3.2 11.3 0.00 0.00 0.00 41 1015.6
20260502192524 13 226 4.8 16.1 0.00 0.00 0.00 38 1015.8
20260502192038 14 225 8.0 16.1 0.00 0.00 0.00 36 1015.8
20260502191651 14 188 4.8 14.5 0.00 0.00 0.00 38 1015.9
20260502191034 13 229 3.2 11.3 0.00 0.00 0.00 39 1015.9
20260502190525 13 256 3.2 11.3 0.00 0.00 0.00 39 1016.0
20260502190202 15 234 3.2 16.1 0.00 0.00 0.00 39 1015.9
20260502185523 16 180 4.8 12.9 0.00 0.00 0.00 35 1016.0
20260502185025 15 200 4.8 14.5 0.00 0.00 0.00 37 1016.2
20260502184657 13 208 4.8 14.5 0.00 0.00 0.00 41 1016.3
20260502184031 13 188 1.6 12.9 0.00 0.00 0.00 40 1016.2
20260502183524 14 233 4.8 12.9 0.00 0.00 0.00 37 1016.2
20260502183153 15 259 6.4 14.5 0.00 0.00 0.00 37 1016.3
20260502182542 14 241 6.4 19.3 0.00 0.00 0.00 39 1016.5
20260502182024 12 184 3.2 19.3 0.00 0.00 0.00 41 1016.4
20260502181623 12 194 1.6 6.4 0.00 0.00 0.00 43 1016.5
20260502181031 12 219 1.6 4.8 0.00 0.00 0.00 45 1016.6
20260502180529 12 71 1.6 9.7 0.00 0.00 0.00 42 1016.5
20260502180154 12 226 1.6 9.7 0.00 0.00 0.00 43 1016.7
20260502170144 12 29 1.6 19.3 0.00 0.00 0.00 41 1016.7
20260502164024 13 281 3.2 20.9 0.00 0.00 0.00 40 1016.9
20260502163534 13 234 9.7 16.1 0.00 0.00 0.00 39 1016.8
20260502163140 13 254 3.2 17.7 0.00 0.00 0.00 39 1017.0
20260502162540 14 200 6.4 17.7 0.00 0.00 0.00 38 1016.7
20260502162033 13 259 3.2 14.5 0.00 0.00 0.00 41 1016.8
20260502161653 15 64 3.2 12.9 0.00 0.00 0.00 38 1016.7
20260502161034 14 108 3.2 11.3 0.00 0.00 0.00 40 1016.8
20260502160525 14 175 1.6 8.0 0.00 0.00 0.00 43 1017.1
20260502160153 13 179 1.6 9.7 0.00 0.00 0.00 46 1016.9
20260502152035 12 78 3.2 8.0 0.00 0.00 0.00 47 1017.4
20260502151614 12 195 3.2 8.0 0.00 0.00 0.00 45 1017.2
20260502151039 13 192 4.8 9.7 0.00 0.00 0.00 43 1017.5
20260502150544 12 182 3.2 12.9 0.00 0.00 0.00 44 1017.5
20260502150214 11 69 6.4 12.9 0.00 0.00 0.00 49 1017.4
20260502130543 8 196 0.0 3.2 0.00 0.00 0.00 80 1017.6
20260502130119 8 210 1.6 3.2 0.00 0.00 0.00 80 1017.7
20260502123529 6 150 0.0 1.6 0.00 0.00 0.00 90 1017.4
20260502123213 5 136 0.0 1.6 0.00 0.00 0.00 92 1017.3
20260502122530 5 158 0.0 1.6 0.00 0.00 0.00 92 1017.5
20260502122045 4 196 0.0 1.6 0.00 0.00 0.00 92 1017.4
20260502121700 3 196 0.0 1.6 0.00 0.00 0.00 92 1017.5
20260502121034 3 196 0.0 1.6 0.00 0.00 0.00 92 1017.7
20260502120536 3 196 0.0 1.6 0.00 0.00 0.00 93 1017.5
20260502120139 2 196 0.0 1.6 0.00 0.00 0.00 92 1017.3
20260502115542 2 196 0.0 1.6 0.00 0.00 0.00 92 1017.6
20260502115215 2 196 0.0 1.6 0.00 0.00 0.00 92 1017.5
20260502114623 2 196 0.0 1.6 0.00 0.00 0.00 92 1017.5
20260502114030 2 196 0.0 1.6 0.00 0.00 0.00 92 1017.4
20260502113520 1 196 0.0 1.6 0.00 0.00 0.00 92 1017.2
20260502113130 1 196 0.0 1.6 0.00 0.00 0.00 92 1017.4
20260502112533 1 196 0.0 0.0 0.00 0.00 0.00 92 1017.4
20260502112041 1 196 0.0 1.6 0.00 0.00 0.00 92 1017.2
20260502111634 1 196 0.0 1.6 0.00 0.00 0.00 92 1017.3
20260502111030 1 196 0.0 0.0 0.00 0.00 0.00 92 1017.2
20260502110546 1 196 0.0 0.0 0.00 0.00 0.00 92 1017.2
20260502110200 1 196 0.0 1.6 0.00 0.00 0.00 92 1017.1
20260502105528 1 196 0.0 1.6 0.00 0.00 0.00 92 1017.1
20260502105024 1 196 0.0 1.6 0.00 0.00 0.00 92 1016.9
20260502104653 1 196 0.0 1.6 0.00 0.00 0.00 92 1016.9
20260502104033 1 196 0.0 1.6 0.00 0.00 0.00 92 1017.2
20260502103538 1 196 0.0 1.6 0.00 0.00 0.00 92 1017.1
20260502103138 1 196 0.0 1.6 0.00 0.00 0.00 92 1017.1
20260502102529 1 196 0.0 1.6 0.00 0.00 0.00 92 1016.8
20260502102031 1 196 0.0 1.6 0.00 0.00 0.00 92 1017.0
20260502101633 1 196 0.0 0.0 0.00 0.00 0.00 92 1017.2
20260502101043 1 196 0.0 0.0 0.00 0.00 0.00 92 1017.2
20260502100543 1 196 0.0 0.0 0.00 0.00 0.00 92 1017.2
20260502100204 1 196 0.0 0.0 0.00 0.00 0.00 92 1017.4
20260502091031 1 196 0.0 1.6 0.00 0.00 0.00 92 1017.3
20260502090535 1 196 0.0 1.6 0.00 0.00 0.00 92 1017.4
20260502090137 1 196 0.0 1.6 0.00 0.00 0.00 92 1017.4
20260502071040 1 196 0.0 0.0 0.00 0.00 0.00 91 1016.6
20260502070538 1 196 0.0 0.0 0.00 0.00 0.00 91 1016.7
20260502070204 1 196 0.0 1.6 0.00 0.00 0.00 91 1016.7
20260502065530 2 196 0.0 1.6 0.00 0.00 0.00 91 1016.7
20260502065028 2 196 0.0 0.0 0.00 0.00 0.00 91 1016.8
20260502064700 2 196 0.0 0.0 0.00 0.00 0.00 91 1017.0
20260502064034 2 196 0.0 0.0 0.00 0.00 0.00 91 1017.0
20260502063530 2 196 0.0 0.0 0.00 0.00 0.00 91 1017.0
20260502063153 2 196 0.0 1.6 0.00 0.00 0.00 91 1016.8
20260502062547 2 196 0.0 1.6 0.00 0.00 0.00 91 1017.1
20260502062031 2 196 0.0 0.0 0.00 0.00 0.00 91 1017.0
20260502061658 2 196 0.0 0.0 0.00 0.00 0.00 91 1017.1
20260502061030 2 196 0.0 0.0 0.00 0.00 0.00 91 1017.1
20260502060533 2 196 0.0 0.0 0.00 0.00 0.00 91 1017.1
20260502060220 2 196 0.0 0.0 0.00 0.00 0.00 91 1017.2
20260502055519 2 196 0.0 0.0 0.00 0.00 0.00 91 1017.4
20260502055038 2 196 0.0 1.6 0.00 0.00 0.00 91 1017.3
20260502054652 2 196 0.0 1.6 0.00 0.00 0.00 90 1017.2
20260502054044 2 196 0.0 1.6 0.00 0.00 0.00 91 1017.4
20260502053530 2 196 0.0 1.6 0.00 0.00 0.00 90 1017.4
20260502053155 2 196 0.0 1.6 0.00 0.00 0.00 91 1017.2
20260502052547 2 196 0.0 1.6 0.00 0.00 0.00 91 1017.4
20260502052040 2 196 0.0 3.2 0.00 0.00 0.00 90 1017.4
20260502051657 2 275 0.0 1.6 0.00 0.00 0.00 90 1017.6
20260502051035 3 311 0.0 1.6 0.00 0.00 0.00 90 1017.6
20260502050539 3 323 0.0 0.0 0.00 0.00 0.00 90 1017.5
20260502050251 3 323 0.0 0.0 0.00 0.00 0.00 90 1017.5
20260502045548 3 323 0.0 0.0 0.00 0.00 0.00 89 1017.4
20260502045017 3 323 0.0 0.0 0.00 0.00 0.00 89 1017.5
20260502044655 3 323 0.0 0.0 0.00 0.00 0.00 89 1017.4
20260502044027 3 323 0.0 0.0 0.00 0.00 0.00 89 1017.6
20260502043523 3 323 0.0 1.6 0.00 0.00 0.00 89 1017.6
20260502043139 3 323 0.0 3.2 0.00 0.00 0.00 89 1017.6
20260502042523 3 331 0.0 3.2 0.00 0.00 0.00 89 1017.7
20260502042028 3 350 0.0 0.0 0.00 0.00 0.00 89 1017.7
20260502041604 3 350 0.0 0.0 0.00 0.00 0.00 88 1017.6
20260502041022 4 350 0.0 0.0 0.00 0.00 0.00 88 1017.9
20260502040518 4 350 0.0 1.6 0.00 0.00 0.00 87 1017.8
20260502040150 4 350 0.0 1.6 0.00 0.00 0.00 88 1017.8
20260502035530 5 352 0.0 1.6 0.00 0.00 0.00 87 1017.7
20260502035034 5 352 0.0 1.6 0.00 0.00 0.00 87 1017.7
20260502034644 5 352 0.0 0.0 0.00 0.00 0.00 87 1017.6
20260502034023 5 352 0.0 0.0 0.00 0.00 0.00 86 1017.6
20260502033539 5 355 0.0 1.6 0.00 0.00 0.00 86 1017.5
20260502033125 5 352 0.0 1.6 0.00 0.00 0.00 85 1017.5
20260502032548 5 355 0.0 1.6 0.00 0.00 0.00 84 1017.3
20260502032022 5 355 0.0 0.0 0.00 0.00 0.00 84 1017.4
20260502031640 6 355 0.0 1.6 0.00 0.00 0.00 83 1017.6
20260502031021 6 352 0.0 1.6 0.00 0.00 0.00 83 1017.5
20260502030536 6 352 0.0 0.0 0.00 0.00 0.00 82 1017.5
20260502030137 6 352 0.0 0.0 0.00 0.00 0.00 81 1017.6
20260502025523 6 352 0.0 1.6 0.00 0.00 0.00 81 1017.6
20260502025033 6 352 0.0 1.6 0.00 0.00 0.00 80 1017.6
20260502024653 7 352 0.0 3.2 0.00 0.00 0.00 79 1017.6
20260502024018 7 355 0.0 3.2 0.00 0.00 0.00 79 1017.6
20260502023537 7 352 0.0 1.6 0.00 0.00 0.00 79 1017.6
20260502023145 7 352 0.0 1.6 0.00 0.00 0.00 78 1017.6
20260502022523 7 355 0.0 1.6 0.00 0.00 0.00 78 1017.8
20260502022047 7 355 0.0 1.6 0.00 0.00 0.00 76 1017.7
20260502021650 8 352 0.0 1.6 0.00 0.00 0.00 75 1017.6
20260502021018 8 352 0.0 3.2 0.00 0.00 0.00 74 1017.3
20260502020527 8 352 0.0 3.2 0.00 0.00 0.00 72 1017.0
20260502020120 8 352 0.0 3.2 0.00 0.00 0.00 72 1017.1
20260502015533 8 351 0.0 1.6 0.00 0.00 0.00 72 1016.8
20260502015049 8 351 0.0 1.6 0.00 0.00 0.00 72 1016.9
20260502014656 8 351 0.0 1.6 0.00 0.00 0.00 72 1016.5
20260502014046 9 351 0.0 1.6 0.00 0.00 0.00 71 1016.6
20260502013523 8 290 0.0 4.8 0.00 0.00 0.00 70 1016.6
20260502013151 9 290 0.0 4.8 0.00 0.00 0.00 69 1016.4
20260502012530 9 5 0.0 4.8 0.00 0.00 0.00 68 1016.4
20260502012023 9 5 0.0 4.8 0.00 0.00 0.00 69 1016.3
20260502011705 10 58 0.0 1.6 0.00 0.00 0.00 68 1016.1
20260502011028 10 58 0.0 4.8 0.00 0.00 0.00 67 1016.3
20260502010523 10 60 0.0 4.8 0.00 0.00 0.00 64 1016.0
20260502010202 10 217 0.0 4.8 0.00 0.00 0.00 63 1016.0
20260502005536 10 184 0.0 8.0 0.00 0.00 0.00 62 1015.9
20260502005021 10 40 3.2 12.9 0.00 0.00 0.00 62 1015.7
20260502004641 10 38 1.6 8.0 0.00 0.00 0.00 62 1015.6
20260502004037 11 65 0.0 9.7 0.00 0.00 0.00 62 1015.5
20260502003520 11 284 0.0 9.7 0.00 0.00 0.00 62 1015.4
20260502003149 11 241 1.6 8.0 0.00 0.00 0.00 61 1015.2
20260502002525 11 244 1.6 8.0 0.00 0.00 0.00 61 1015.0
20260502002048 12 328 0.0 4.8 0.00 0.00 0.00 61 1015.0
20260502001640 12 52 0.0 4.8 0.00 0.00 0.00 62 1015.0
20260502001041 12 206 1.6 6.4 0.00 0.00 0.00 62 1015.1
20260502000543 12 38 1.6 6.4 0.00 0.00 0.00 62 1014.7
20260502000148 12 211 1.6 4.8 0.00 0.00 0.00 61 1014.8
20260501235533 12 213 1.6 4.8 0.00 0.00 0.00 61 1014.6
20260501235047 12 123 0.0 8.0 0.00 0.00 0.00 61 1014.5
20260501234653 12 92 3.2 11.3 0.00 0.00 0.00 60 1014.4